Snowfall_Accumulation
0.0 0.0 0.0 0.0 0.0 0.0 0.0 0.0 0.0 0.0 0.0 0.0 0.0 0.0 0.0 0.0 0.0 0.0 0.0 0.0 0.0 0.0
0.0 0.0 0.0 0.0 0.0 0.0 0.0 0.0 0.0 0.0 0.0 0.0 0.0 0.0 0.0 0.0 0.0 0.0 0.0 0.0 0.0 0.0
0.0 0.0 0.0 0.0 0.0 0.0 0.0 0.0 0.0 0.0 0.0 0.0 0.0 0.0 0.0 0.0 0.0 0.0 0.0 0.0 0.0 0.0
0.0 0.0 0.0 0.0 0.0 0.0 0.0 0.0 0.0 0.0 0.0 0.0 0.0 0.0 0.0 0.0 0.0 0.0 0.0 0.0 0.0 0.0
0.0 0.0 0.0 0.0 0.0 0.0 0.0 0.0 0.0 0.0 0.0 0.0 0.0 0.0 0.0 0.0 0.0 0.0 0.0 0.0 0.0 0.0
0.0 0.0 0.0 0.0 0.0 0.0 0.0 0.0 0.0 0.0 0.0 0.0 0.0 0.0 0.0 0.0 0.0 0.0 0.0 0.0 0.0 0.0
0.0 0.0 0.0 0.0 0.0 0.0 0.0 0.0 0.0 0.0 0.0 0.0 0.0 0.0 0.0 0.0 0.0 0.0 0.0 0.0 0.0 0.0
0.1 0.0 0.0 0.0 0.0 0.0 0.0 0.0 0.0 0.0 0.0 0.0 0.0 0.0 0.0 0.0 0.0 0.0 0.0 0.0 0.0 0.0
0.0 0.0 0.0 0.0 0.1 0.0 0.0 0.0 0.0 0.0 0.0 0.0 0.0 nan nan 0.0 0.0 0.0 0.0 0.0 0.0 0.0
0.5 0.5 0.5 0.3 0.2 0.3 0.4 0.3 0.5 0.4 0.3 0.5 0.2 nan nan nan 0.3 0.2 0.4 0.5 0.3 0.1
0.4 0.9 1.0 1.1 1.5 1.9 2.1 3.9 3.2 2.4 2.5 1.3 1.1 nan nan nan 1.4 2.2 2.0 1.7 1.7 1.9
1.0 1.5 1.7 3.3 3.3 3.9 2.4 3.0 5.6 4.7 3.3 2.8 3.1 nan nan 2.1 3.3 4.1 3.6 2.8 2.7 1.9
0.9 2.5 4.5 5.3 6.4 6.2 5.8 6.1 4.6 5.1 5.2 nan 4.0 nan nan nan 4.0 3.2 4.7 3.7 3.3 nan
0.5 1.1 1.3 1.9 3.0 6.0 6.9 6.9 6.8 6.3 6.2 5.4 5.0 5.4 nan nan 4.7 6.1 4.9 4.5 5.6 5.1
Water_Equivalent
0.00 0.00 0.00 0.00 0.00 0.00 0.00 0.00 0.00 0.00 0.00 0.00 0.00 0.00 0.00 0.00 0.00 0.00 0.00 0.00 0.00 0.00
0.00 0.00 0.00 0.00 0.00 0.00 0.00 0.00 0.00 0.00 0.00 0.00 0.00 0.00 0.00 0.00 0.00 0.00 0.00 0.00 0.00 0.00
0.00 0.00 0.00 0.00 0.00 0.00 0.00 0.00 0.00 0.00 0.00 0.00 0.00 0.00 0.00 0.00 0.00 0.00 0.00 0.00 0.00 0.00
0.00 0.00 0.00 0.00 0.00 0.00 0.00 0.00 0.00 0.00 0.00 0.00 0.00 0.00 0.00 0.00 0.00 0.00 0.00 0.00 0.00 0.00
0.00 0.00 0.00 0.00 0.00 0.00 0.00 0.00 0.00 0.00 0.00 0.00 0.00 0.00 0.00 0.00 0.00 0.00 0.00 0.00 0.00 0.00
0.00 0.00 0.00 0.00 0.00 0.00 0.00 0.00 0.00 0.00 0.00 0.00 0.00 0.00 0.00 0.00 0.00 0.00 0.00 0.00 0.00 0.00
0.00 0.00 0.00 0.00 0.00 0.00 0.00 0.00 0.00 0.00 0.00 0.00 0.00 0.00 0.00 0.00 0.00 0.00 0.00 0.00 0.00 0.00
0.02 0.00 0.00 0.00 0.00 0.00 0.00 0.00 0.00 0.00 0.00 0.00 0.00 0.00 0.00 0.00 0.00 0.00 0.00 0.00 0.00 0.00
0.01 0.00 0.01 0.01 0.02 0.00 0.01 0.00 0.00 0.00 0.00 0.01 0.00 nan nan 0.00 0.00 0.00 0.00 0.00 0.00 0.00
0.10 0.10 0.10 0.05 0.04 0.06 0.07 0.04 0.09 0.07 0.06 0.08 0.05 nan nan nan 0.06 0.05 0.07 0.09 0.05 0.01
0.09 0.20 0.21 0.25 0.32 0.39 0.46 0.78 0.60 0.39 0.41 0.22 0.22 nan nan nan 0.33 0.47 0.35 0.34 0.29 0.32
0.20 0.28 0.33 0.66 0.63 0.77 0.50 0.60 1.04 0.95 0.59 0.44 0.49 nan nan 0.39 0.58 0.85 0.69 0.50 0.48 0.30
0.20 0.47 0.88 1.03 1.27 1.32 1.18 1.12 0.92 0.91 0.93 nan 0.78 nan nan nan 0.72 0.50 0.87 0.64 0.59 nan
0.17 0.37 0.36 0.49 0.73 1.48 1.66 1.68 1.34 1.17 1.15 0.95 0.96 1.10 nan nan 0.92 1.13 0.85 0.81 1.05 1.00
SL_Ratio
nan nan nan nan nan nan nan nan nan nan nan nan nan nan nan nan nan nan nan nan nan nan
nan nan nan nan nan nan nan nan nan nan nan nan nan nan nan nan nan nan nan nan nan nan
nan nan nan nan nan nan nan nan nan nan nan nan nan nan nan nan nan nan nan nan nan nan
nan nan nan nan nan nan nan nan nan nan nan nan nan nan nan nan nan nan nan nan nan nan
nan nan nan nan nan nan nan nan nan nan nan nan nan nan nan nan nan nan nan nan nan nan
nan nan nan nan nan nan nan nan nan nan nan nan nan nan nan nan nan nan nan nan nan nan
nan nan nan nan nan nan nan nan nan nan nan 10.0 nan nan nan nan nan nan nan nan nan nan
4.3 4.3 nan nan nan nan nan 10.0 10.0 10.0 nan 6.7 5.7 5.0 nan nan nan nan nan nan nan nan
4.3 4.3 4.5 4.7 4.8 4.3 4.7 4.5 2.5 6.7 6.7 5.8 nan nan nan nan nan nan nan nan nan nan
4.7 5.0 5.3 4.8 4.8 4.8 5.8 6.0 5.7 5.6 5.5 5.6 4.9 nan nan nan 4.8 4.7 5.7 5.5 5.2 5.2
4.8 4.7 4.8 4.5 4.6 4.7 4.6 5.0 5.3 6.2 6.0 6.0 5.0 nan nan nan 4.2 4.7 5.7 4.9 5.9 5.8
5.2 5.2 5.2 4.9 5.2 5.1 4.8 5.1 5.4 5.0 5.6 6.4 6.2 nan nan 5.4 5.7 4.8 5.2 5.7 5.7 6.3
4.2 5.2 5.2 5.1 5.0 4.7 4.9 5.5 5.0 5.6 5.6 nan 5.1 nan nan nan 5.6 6.4 5.4 5.8 5.6 nan
3.1 3.1 3.7 4.0 4.0 4.0 4.1 4.1 5.1 5.4 5.4 5.6 5.2 4.9 nan nan 5.1 5.4 5.7 5.5 5.4 5.1